| time (UTC) | temp F | wind direction | speed MPH | gust MPH | rain 1hr in | rain 24hr in | rain mn in | humidity % | barometer mb |
| 20260831022043 | 83 | 290 | 0.0 | 0.0 | 0.00 | 0.00 | 0.00 | 53 | 1006.8 |
| 20260831021545 | 84 | 290 | 0.0 | 0.0 | 0.00 | 0.00 | 0.00 | 53 | 1006.8 |
| 20260831021043 | 84 | 290 | 0.0 | 0.0 | 0.00 | 0.00 | 0.00 | 52 | 1006.8 |
| 20260831020543 | 84 | 290 | 0.0 | 0.0 | 0.00 | 0.00 | 0.00 | 51 | 1006.7 |
| 20260831020043 | 85 | 290 | 0.0 | 0.0 | 0.00 | 0.00 | 0.00 | 51 | 1006.6 |
| 20260831015542 | 85 | 290 | 0.0 | 0.0 | 0.00 | 0.00 | 0.00 | 51 | 1006.6 |
| 20260831015042 | 85 | 290 | 0.0 | 0.0 | 0.00 | 0.00 | 0.00 | 50 | 1006.5 |
| 20260831014542 | 86 | 290 | 0.0 | 0.0 | 0.00 | 0.00 | 0.00 | 49 | 1006.5 |
| 20260831014042 | 86 | 290 | 0.0 | 0.0 | 0.00 | 0.00 | 0.00 | 48 | 1006.2 |
| 20260831013542 | 87 | 290 | 0.0 | 0.0 | 0.00 | 0.00 | 0.00 | 48 | 1006.3 |
| 20260831013053 | 88 | 290 | 0.0 | 1.0 | 0.00 | 0.00 | 0.00 | 47 | 1006.3 |
| 20260831012542 | 88 | 290 | 0.0 | 0.0 | 0.00 | 0.00 | 0.00 | 46 | 1006.3 |
| 20260831012041 | 89 | 290 | 0.0 | 0.0 | 0.00 | 0.00 | 0.00 | 45 | 1006.2 |
| 20260831011544 | 90 | 290 | 0.0 | 0.0 | 0.00 | 0.00 | 0.00 | 44 | 1006.1 |
| 20260831011040 | 91 | 290 | 0.0 | 0.0 | 0.00 | 0.00 | 0.00 | 43 | 1006.1 |
| 20260831010540 | 91 | 290 | 0.0 | 0.0 | 0.00 | 0.00 | 0.00 | 42 | 1006.0 |
| 20260831010045 | 92 | 290 | 0.0 | 1.0 | 0.00 | 0.00 | 0.00 | 41 | 1006.0 |
| 20260831005540 | 93 | 290 | 0.0 | 1.0 | 0.00 | 0.00 | 0.00 | 40 | 1006.0 |
| 20260831005041 | 94 | 286 | 0.0 | 1.0 | 0.00 | 0.00 | 0.00 | 39 | 1005.9 |
| 20260831004544 | 95 | 148 | 0.0 | 1.0 | 0.00 | 0.00 | 0.00 | 39 | 1005.9 |
| 20260831004040 | 96 | 148 | 0.0 | 1.0 | 0.00 | 0.00 | 0.00 | 38 | 1005.9 |
| 20260831003540 | 97 | 142 | 0.0 | 2.0 | 0.00 | 0.00 | 0.00 | 36 | 1005.9 |
| 20260831003047 | 98 | 244 | 0.0 | 2.0 | 0.00 | 0.00 | 0.00 | 35 | 1005.8 |
| 20260831002539 | 98 | 246 | 0.0 | 2.0 | 0.00 | 0.00 | 0.00 | 35 | 1005.8 |
| 20260831002038 | 98 | 201 | 0.0 | 2.0 | 0.00 | 0.00 | 0.00 | 35 | 1005.9 |
| 20260831001538 | 99 | 207 | 0.0 | 3.0 | 0.00 | 0.00 | 0.00 | 34 | 1005.9 |
| 20260831001038 | 100 | 277 | 1.0 | 3.0 | 0.00 | 0.00 | 0.00 | 34 | 1006.0 |
| 20260831000538 | 100 | 195 | 0.0 | 6.0 | 0.00 | 0.00 | 0.00 | 34 | 1006.1 |
| 20260831000038 | 100 | 207 | 2.0 | 6.0 | 0.00 | 0.00 | 0.00 | 33 | 1006.0 |
| 20260830235541 | 101 | 196 | 2.0 | 5.0 | 0.00 | 0.00 | 0.00 | 32 | 1006.0 |
| 20260830235042 | 101 | 238 | 2.0 | 5.0 | 0.00 | 0.00 | 0.00 | 31 | 1006.1 |
| 20260830234545 | 102 | 243 | 0.0 | 3.0 | 0.00 | 0.00 | 0.00 | 33 | 1006.0 |
| 20260830234037 | 102 | 310 | 0.0 | 2.0 | 0.00 | 0.00 | 0.00 | 32 | 1006.0 |
| 20260830233540 | 102 | 202 | 0.0 | 4.0 | 0.00 | 0.00 | 0.00 | 32 | 1006.1 |
| 20260830233037 | 101 | 252 | 1.0 | 5.0 | 0.00 | 0.00 | 0.00 | 32 | 1006.0 |
| 20260830232537 | 101 | 193 | 1.0 | 8.0 | 0.00 | 0.00 | 0.00 | 32 | 1006.1 |
| 20260830232036 | 101 | 221 | 3.0 | 8.0 | 0.00 | 0.00 | 0.00 | 30 | 1006.0 |
| 20260830231539 | 103 | 198 | 1.0 | 4.0 | 0.00 | 0.00 | 0.00 | 30 | 1006.1 |
| 20260830231034 | 103 | 212 | 1.0 | 4.0 | 0.00 | 0.00 | 0.00 | 30 | 1006.1 |
| 20260830230533 | 104 | 223 | 1.0 | 3.0 | 0.00 | 0.00 | 0.00 | 30 | 1006.2 |
| 20260830230031 | 103 | 311 | 0.0 | 3.0 | 0.00 | 0.00 | 0.00 | 30 | 1006.2 |
| 20260830225531 | 102 | 210 | 1.0 | 4.0 | 0.00 | 0.00 | 0.00 | 32 | 1006.2 |
| 20260830225030 | 102 | 205 | 0.0 | 11.0 | 0.00 | 0.00 | 0.00 | 32 | 1006.2 |
| 20260830224530 | 102 | 171 | 3.0 | 11.0 | 0.00 | 0.00 | 0.00 | 31 | 1006.2 |
| 20260830224035 | 102 | 205 | 2.0 | 6.0 | 0.00 | 0.00 | 0.00 | 30 | 1006.1 |
| 20260830223530 | 102 | 139 | 1.0 | 5.0 | 0.00 | 0.00 | 0.00 | 32 | 1006.2 |
| 20260830223031 | 101 | 269 | 0.0 | 5.0 | 0.00 | 0.00 | 0.00 | 32 | 1006.2 |
| 20260830222528 | 100 | 290 | 0.0 | 6.0 | 0.00 | 0.00 | 0.00 | 34 | 1006.3 |
| 20260830222032 | 100 | 295 | 2.0 | 8.0 | 0.00 | 0.00 | 0.00 | 31 | 1006.4 |
| 20260830221527 | 102 | 160 | 2.0 | 8.0 | 0.00 | 0.00 | 0.00 | 30 | 1006.5 |
| 20260830221027 | 103 | 250 | 3.0 | 8.0 | 0.00 | 0.00 | 0.00 | 30 | 1006.4 |
| 20260830220526 | 103 | 357 | 1.0 | 5.0 | 0.00 | 0.00 | 0.00 | 30 | 1006.5 |
| 20260830220025 | 102 | 236 | 0.0 | 6.0 | 0.00 | 0.00 | 0.00 | 32 | 1006.4 |
| 20260830215525 | 101 | 137 | 1.0 | 8.0 | 0.00 | 0.00 | 0.00 | 33 | 1006.4 |
| 20260830215024 | 101 | 196 | 3.0 | 8.0 | 0.00 | 0.00 | 0.00 | 32 | 1006.4 |
| 20260830214524 | 101 | 195 | 0.0 | 3.0 | 0.00 | 0.00 | 0.00 | 33 | 1006.4 |
| 20260830214023 | 100 | 268 | 0.0 | 3.0 | 0.00 | 0.00 | 0.00 | 33 | 1006.4 |
| 20260830213526 | 99 | 165 | 0.0 | 7.0 | 0.00 | 0.00 | 0.00 | 34 | 1006.5 |
| 20260830213023 | 99 | 127 | 2.0 | 7.0 | 0.00 | 0.00 | 0.00 | 33 | 1006.5 |
| 20260830212522 | 99 | 277 | 0.0 | 7.0 | 0.00 | 0.00 | 0.00 | 35 | 1006.6 |
| 20260830212022 | 100 | 186 | 3.0 | 7.0 | 0.00 | 0.00 | 0.00 | 32 | 1006.7 |
| 20260830211521 | 102 | 221 | 2.0 | 6.0 | 0.00 | 0.00 | 0.00 | 32 | 1006.8 |
| 20260830211020 | 102 | 210 | 1.0 | 5.0 | 0.00 | 0.00 | 0.00 | 32 | 1006.8 |
| 20260830210521 | 102 | 224 | 1.0 | 8.0 | 0.00 | 0.00 | 0.00 | 30 | 1006.9 |
| 20260830210019 | 101 | 162 | 1.0 | 9.0 | 0.00 | 0.00 | 0.00 | 32 | 1007.0 |
| 20260830205523 | 101 | 209 | 3.0 | 11.0 | 0.00 | 0.00 | 0.00 | 31 | 1006.9 |
| 20260830205018 | 101 | 153 | 3.0 | 9.0 | 0.00 | 0.00 | 0.00 | 30 | 1007.0 |
| 20260830204518 | 101 | 240 | 2.0 | 9.0 | 0.00 | 0.00 | 0.00 | 31 | 1007.1 |
| 20260830204017 | 102 | 167 | 2.0 | 6.0 | 0.00 | 0.00 | 0.00 | 31 | 1007.3 |
| 20260830203517 | 101 | 231 | 2.0 | 10.0 | 0.00 | 0.00 | 0.00 | 31 | 1007.2 |
| 20260830203023 | 100 | 201 | 2.0 | 12.0 | 0.00 | 0.00 | 0.00 | 32 | 1007.3 |
| 20260830202517 | 101 | 231 | 2.0 | 10.0 | 0.00 | 0.00 | 0.00 | 33 | 1007.4 |
| 20260830202017 | 101 | 221 | 1.0 | 12.0 | 0.00 | 0.00 | 0.00 | 32 | 1007.4 |
| 20260830201514 | 101 | 229 | 5.0 | 11.0 | 0.00 | 0.00 | 0.00 | 31 | 1007.5 |
| 20260830201018 | 101 | 203 | 1.0 | 8.0 | 0.00 | 0.00 | 0.00 | 32 | 1007.6 |
| 20260830200512 | 101 | 236 | 3.0 | 8.0 | 0.00 | 0.00 | 0.00 | 32 | 1007.8 |
| 20260830200012 | 101 | 252 | 2.0 | 9.0 | 0.00 | 0.00 | 0.00 | 32 | 1007.7 |
| 20260830195511 | 101 | 155 | 3.0 | 11.0 | 0.00 | 0.00 | 0.00 | 31 | 1007.8 |
| 20260830195012 | 102 | 243 | 1.0 | 9.0 | 0.00 | 0.00 | 0.00 | 32 | 1007.9 |
| 20260830194510 | 102 | 193 | 4.0 | 9.0 | 0.00 | 0.00 | 0.00 | 31 | 1008.0 |
| 20260830194010 | 102 | 198 | 1.0 | 4.0 | 0.00 | 0.00 | 0.00 | 33 | 1008.1 |
| 20260830193507 | 101 | 248 | 1.0 | 4.0 | 0.00 | 0.00 | 0.00 | 33 | 1008.1 |
| 20260830193007 | 100 | 224 | 1.0 | 12.0 | 0.00 | 0.00 | 0.00 | 35 | 1008.2 |
| 20260830192508 | 100 | 259 | 4.0 | 12.0 | 0.00 | 0.00 | 0.00 | 34 | 1008.3 |
| 20260830192005 | 100 | 238 | 3.0 | 8.0 | 0.00 | 0.00 | 0.00 | 33 | 1008.3 |
| 20260830191505 | 100 | 245 | 1.0 | 7.0 | 0.00 | 0.00 | 0.00 | 36 | 1008.3 |
| 20260830191005 | 100 | 242 | 1.0 | 7.0 | 0.00 | 0.00 | 0.00 | 34 | 1008.4 |
| 20260830190505 | 100 | 231 | 2.0 | 7.0 | 0.00 | 0.00 | 0.00 | 35 | 1008.4 |
| 20260830190005 | 99 | 250 | 1.0 | 8.0 | 0.00 | 0.00 | 0.00 | 36 | 1008.5 |
| 20260830185505 | 100 | 221 | 4.0 | 8.0 | 0.00 | 0.00 | 0.00 | 34 | 1008.7 |
| 20260830185003 | 100 | 196 | 0.0 | 4.0 | 0.00 | 0.00 | 0.00 | 36 | 1008.7 |
| 20260830184502 | 99 | 178 | 1.0 | 7.0 | 0.00 | 0.00 | 0.00 | 36 | 1008.7 |
| 20260830184100 | 98 | 4 | 1.0 | 7.0 | 0.00 | 0.00 | 0.00 | 38 | 1008.8 |
| 20260830184000 | 98 | 214 | 3.0 | 7.0 | 0.00 | 0.00 | 0.00 | 38 | 1008.8 |
| 20260830183602 | 98 | 233 | 1.0 | 7.0 | 0.00 | 0.00 | 0.00 | 38 | 1008.7 |
| 20260830183115 | 97 | 224 | 4.0 | 11.0 | 0.00 | 0.00 | 0.00 | 39 | 1008.8 |
| 20260830182603 | 97 | 255 | 4.0 | 11.0 | 0.00 | 0.00 | 0.00 | 38 | 1008.9 |
| 20260830182059 | 98 | 250 | 4.0 | 8.0 | 0.00 | 0.00 | 0.00 | 39 | 1009.1 |
| 20260830181558 | 98 | 219 | 2.0 | 8.0 | 0.00 | 0.00 | 0.00 | 39 | 1009.2 |
| 20260830181101 | 98 | 198 | 2.0 | 10.0 | 0.00 | 0.00 | 0.00 | 38 | 1009.2 |
| 20260830180557 | 97 | 186 | 2.0 | 11.0 | 0.00 | 0.00 | 0.00 | 39 | 1009.3 |
| 20260830180104 | 98 | 266 | 1.0 | 11.0 | 0.00 | 0.00 | 0.00 | 39 | 1009.5 |
| 20260830175556 | 97 | 189 | 2.0 | 9.0 | 0.00 | 0.00 | 0.00 | 40 | 1009.5 |
| 20260830175059 | 97 | 179 | 2.0 | 7.0 | 0.00 | 0.00 | 0.00 | 40 | 1009.5 |
| 20260830174557 | 97 | 198 | 2.0 | 9.0 | 0.00 | 0.00 | 0.00 | 39 | 1009.6 |
| 20260830174058 | 97 | 153 | 5.0 | 9.0 | 0.00 | 0.00 | 0.00 | 38 | 1009.7 |
| 20260830173559 | 97 | 252 | 1.0 | 8.0 | 0.00 | 0.00 | 0.00 | 38 | 1009.8 |
| 20260830173110 | 97 | 194 | 0.0 | 10.0 | 0.00 | 0.00 | 0.00 | 41 | 1009.8 |
| 20260830172552 | 96 | 193 | 2.0 | 10.0 | 0.00 | 0.00 | 0.00 | 41 | 1010.0 |
| 20260830172055 | 96 | 338 | 3.0 | 10.0 | 0.00 | 0.00 | 0.00 | 41 | 1010.0 |
| 20260830171552 | 96 | 198 | 0.0 | 8.0 | 0.00 | 0.00 | 0.00 | 42 | 1010.0 |
| 20260830171051 | 96 | 180 | 3.0 | 10.0 | 0.00 | 0.00 | 0.00 | 41 | 1010.2 |
| 20260830170552 | 96 | 266 | 1.0 | 10.0 | 0.00 | 0.00 | 0.00 | 42 | 1010.3 |
| 20260830170054 | 95 | 203 | 2.0 | 9.0 | 0.00 | 0.00 | 0.00 | 43 | 1010.4 |
| 20260830165547 | 94 | 231 | 0.0 | 8.0 | 0.00 | 0.00 | 0.00 | 45 | 1010.3 |
| 20260830165046 | 94 | 193 | 2.0 | 9.0 | 0.00 | 0.00 | 0.00 | 44 | 1010.4 |
| 20260830164552 | 94 | 223 | 5.0 | 9.0 | 0.00 | 0.00 | 0.00 | 44 | 1010.5 |
| 20260830164045 | 94 | 285 | 3.0 | 9.0 | 0.00 | 0.00 | 0.00 | 44 | 1010.6 |
| 20260830163544 | 93 | 276 | 3.0 | 9.0 | 0.00 | 0.00 | 0.00 | 45 | 1010.6 |
| 20260830163054 | 93 | 258 | 2.0 | 6.0 | 0.00 | 0.00 | 0.00 | 47 | 1010.7 |
| 20260830162543 | 92 | 2 | 2.0 | 9.0 | 0.00 | 0.00 | 0.00 | 48 | 1010.6 |
| 20260830162040 | 92 | 225 | 3.0 | 9.0 | 0.00 | 0.00 | 0.00 | 47 | 1010.7 |
| 20260830161558 | 92 | 290 | 3.0 | 8.0 | 0.00 | 0.00 | 0.00 | 47 | 1010.6 |
| 20260830161035 | 92 | 172 | 2.0 | 10.0 | 0.00 | 0.00 | 0.00 | 50 | 1010.7 |
| 20260830160534 | 91 | 246 | 2.0 | 7.0 | 0.00 | 0.00 | 0.00 | 50 | 1010.6 |
| 20260830160033 | 91 | 255 | 2.0 | 8.0 | 0.00 | 0.00 | 0.00 | 50 | 1010.7 |
| 20260830155532 | 91 | 276 | 2.0 | 8.0 | 0.00 | 0.00 | 0.00 | 51 | 1010.6 |
| 20260830155032 | 90 | 229 | 1.0 | 5.0 | 0.00 | 0.00 | 0.00 | 52 | 1010.7 |
| 20260830154529 | 90 | 304 | 2.0 | 9.0 | 0.00 | 0.00 | 0.00 | 52 | 1010.4 |
| 20260830154029 | 89 | 338 | 3.0 | 9.0 | 0.00 | 0.00 | 0.00 | 54 | 1010.6 |
| 20260830153527 | 89 | 216 | 3.0 | 7.0 | 0.00 | 0.00 | 0.00 | 55 | 1010.7 |
| 20260830153042 | 88 | 235 | 1.0 | 7.0 | 0.00 | 0.00 | 0.00 | 56 | 1010.5 |
| 20260830152525 | 88 | 326 | 3.0 | 8.0 | 0.00 | 0.00 | 0.00 | 57 | 1010.7 |
| 20260830152024 | 87 | 243 | 3.0 | 8.0 | 0.00 | 0.00 | 0.00 | 59 | 1010.5 |
| 20260830151523 | 87 | 194 | 2.0 | 6.0 | 0.00 | 0.00 | 0.00 | 59 | 1010.5 |
| 20260830151024 | 87 | 212 | 2.0 | 6.0 | 0.00 | 0.00 | 0.00 | 61 | 1010.7 |
| 20260830150521 | 86 | 287 | 3.0 | 6.0 | 0.00 | 0.00 | 0.00 | 60 | 1010.6 |
| 20260830150019 | 85 | 206 | 2.0 | 7.0 | 0.00 | 0.00 | 0.00 | 61 | 1010.5 |
| 20260830145519 | 85 | 236 | 2.0 | 7.0 | 0.00 | 0.00 | 0.00 | 62 | 1010.6 |
| 20260830145018 | 85 | 253 | 2.0 | 7.0 | 0.00 | 0.00 | 0.00 | 62 | 1010.4 |
| 20260830144518 | 85 | 243 | 1.0 | 6.0 | 0.00 | 0.00 | 0.00 | 63 | 1010.5 |
| 20260830144018 | 84 | 278 | 1.0 | 8.0 | 0.00 | 0.00 | 0.00 | 65 | 1010.7 |
| 20260830143514 | 84 | 240 | 3.0 | 8.0 | 0.00 | 0.00 | 0.00 | 64 | 1010.6 |
| 20260830143012 | 83 | 252 | 1.0 | 5.0 | 0.00 | 0.00 | 0.00 | 66 | 1010.6 |
| 20260830142513 | 82 | 240 | 3.0 | 7.0 | 0.00 | 0.00 | 0.00 | 68 | 1010.7 |
| 20260830142010 | 82 | 195 | 0.0 | 4.0 | 0.00 | 0.00 | 0.00 | 72 | 1010.5 |
| 20260830141516 | 81 | 186 | 1.0 | 6.0 | 0.00 | 0.00 | 0.00 | 74 | 1010.6 |
| 20260830141008 | 80 | 233 | 2.0 | 6.0 | 0.00 | 0.00 | 0.00 | 74 | 1010.6 |
| 20260830140507 | 80 | 245 | 1.0 | 6.0 | 0.00 | 0.00 | 0.00 | 77 | 1010.6 |
| 20260830140006 | 79 | 214 | 1.0 | 6.0 | 0.00 | 0.00 | 0.00 | 79 | 1010.6 |
| 20260830135506 | 78 | 225 | 0.0 | 2.0 | 0.00 | 0.00 | 0.00 | 80 | 1010.6 |
| 20260830135006 | 78 | 173 | 0.0 | 2.0 | 0.00 | 0.00 | 0.00 | 80 | 1010.5 |
| 20260830134512 | 78 | 173 | 0.0 | 2.0 | 0.00 | 0.00 | 0.00 | 81 | 1010.4 |
| 20260830134006 | 77 | 150 | 0.0 | 0.0 | 0.00 | 0.00 | 0.00 | 81 | 1010.5 |
| 20260830133505 | 77 | 150 | 0.0 | 0.0 | 0.00 | 0.00 | 0.00 | 82 | 1010.5 |
| 20260830133005 | 77 | 148 | 0.0 | 0.0 | 0.00 | 0.00 | 0.00 | 82 | 1010.4 |
| 20260830132505 | 77 | 148 | 0.0 | 0.0 | 0.00 | 0.00 | 0.00 | 82 | 1010.5 |
| 20260830132005 | 76 | 248 | 0.0 | 1.0 | 0.00 | 0.00 | 0.00 | 82 | 1010.5 |
| 20260830131509 | 76 | 248 | 0.0 | 1.0 | 0.00 | 0.00 | 0.00 | 83 | 1010.3 |
| 20260830131003 | 76 | 248 | 0.0 | 1.0 | 0.00 | 0.00 | 0.00 | 83 | 1010.2 |
| 20260830130508 | 76 | 248 | 0.0 | 1.0 | 0.00 | 0.00 | 0.00 | 83 | 1010.2 |
| 20260830130001 | 76 | 248 | 0.0 | 0.0 | 0.00 | 0.00 | 0.00 | 83 | 1010.2 |
| 20260830125503 | 76 | 249 | 0.0 | 0.0 | 0.00 | 0.00 | 0.00 | 83 | 1010.2 |
| 20260830125100 | 76 | 249 | 0.0 | 0.0 | 0.00 | 0.00 | 0.00 | 83 | 1010.0 |
| 20260830124559 | 76 | 248 | 0.0 | 0.0 | 0.00 | 0.00 | 0.00 | 82 | 1010.0 |
| 20260830124059 | 76 | 249 | 0.0 | 1.0 | 0.00 | 0.00 | 0.00 | 82 | 1009.9 |
| 20260830123600 | 76 | 248 | 0.0 | 1.0 | 0.00 | 0.00 | 0.00 | 82 | 1009.8 |
| 20260830123059 | 76 | 248 | 0.0 | 1.0 | 0.00 | 0.00 | 0.00 | 82 | 1009.6 |
| 20260830122556 | 76 | 248 | 0.0 | 2.0 | 0.00 | 0.00 | 0.00 | 82 | 1009.6 |
| 20260830122056 | 77 | 248 | 0.0 | 2.0 | 0.00 | 0.00 | 0.00 | 81 | 1009.6 |
| 20260830121554 | 77 | 250 | 0.0 | 1.0 | 0.00 | 0.00 | 0.00 | 81 | 1009.4 |
| 20260830121054 | 77 | 250 | 0.0 | 3.0 | 0.00 | 0.00 | 0.00 | 81 | 1009.4 |
| 20260830120552 | 77 | 250 | 0.0 | 3.0 | 0.00 | 0.00 | 0.00 | 81 | 1009.3 |
| 20260830120054 | 77 | 193 | 0.0 | 2.0 | 0.00 | 0.00 | 0.00 | 81 | 1009.3 |
| 20260830115551 | 77 | 227 | 0.0 | 1.0 | 0.00 | 0.00 | 0.00 | 80 | 1009.2 |
| 20260830115053 | 77 | 238 | 0.0 | 1.0 | 0.00 | 0.00 | 0.00 | 80 | 1009.0 |
| 20260830114552 | 77 | 238 | 0.0 | 1.0 | 0.00 | 0.00 | 0.00 | 80 | 1009.0 |
| 20260830114050 | 77 | 238 | 0.0 | 4.0 | 0.00 | 0.00 | 0.00 | 80 | 1009.0 |
| 20260830113549 | 77 | 226 | 0.0 | 4.0 | 0.00 | 0.00 | 0.00 | 80 | 1009.0 |
| 20260830113049 | 77 | 226 | 0.0 | 3.0 | 0.00 | 0.00 | 0.00 | 80 | 1009.0 |
| 20260830112549 | 77 | 172 | 0.0 | 2.0 | 0.00 | 0.00 | 0.00 | 80 | 1008.9 |
| 20260830112050 | 77 | 245 | 0.0 | 2.0 | 0.00 | 0.00 | 0.00 | 79 | 1008.8 |
| 20260830111552 | 78 | 245 | 0.0 | 2.0 | 0.00 | 0.00 | 0.00 | 79 | 1008.6 |
| 20260830111046 | 78 | 295 | 0.0 | 3.0 | 0.00 | 0.00 | 0.00 | 78 | 1008.6 |
| 20260830110547 | 78 | 295 | 0.0 | 3.0 | 0.00 | 0.00 | 0.00 | 78 | 1008.6 |
| 20260830110048 | 78 | 228 | 0.0 | 4.0 | 0.00 | 0.00 | 0.00 | 78 | 1008.6 |
| 20260830105546 | 78 | 228 | 0.0 | 4.0 | 0.00 | 0.00 | 0.00 | 78 | 1008.6 |
| 20260830105045 | 78 | 217 | 0.0 | 3.0 | 0.00 | 0.00 | 0.00 | 77 | 1008.5 |
| 20260830104546 | 78 | 240 | 0.0 | 3.0 | 0.00 | 0.00 | 0.00 | 77 | 1008.6 |
| 20260830104045 | 78 | 199 | 0.0 | 4.0 | 0.00 | 0.00 | 0.00 | 76 | 1008.5 |
| 20260830103545 | 79 | 199 | 0.0 | 4.0 | 0.00 | 0.00 | 0.00 | 76 | 1008.6 |
| 20260830103045 | 79 | 231 | 0.0 | 4.0 | 0.00 | 0.00 | 0.00 | 75 | 1008.5 |
| 20260830102544 | 79 | 235 | 0.0 | 4.0 | 0.00 | 0.00 | 0.00 | 75 | 1008.4 |
| 20260830102044 | 79 | 214 | 0.0 | 2.0 | 0.00 | 0.00 | 0.00 | 74 | 1008.5 |
| 20260830101544 | 79 | 239 | 0.0 | 2.0 | 0.00 | 0.00 | 0.00 | 74 | 1008.4 |
| 20260830101043 | 80 | 240 | 0.0 | 4.0 | 0.00 | 0.00 | 0.00 | 73 | 1008.5 |
| 20260830100543 | 80 | 156 | 0.0 | 3.0 | 0.00 | 0.00 | 0.00 | 73 | 1008.5 |
| 20260830100043 | 80 | 207 | 0.0 | 5.0 | 0.00 | 0.00 | 0.00 | 72 | 1008.5 |
| 20260830095545 | 80 | 168 | 1.0 | 6.0 | 0.00 | 0.00 | 0.00 | 72 | 1008.4 |
| 20260830095046 | 80 | 212 | 1.0 | 6.0 | 0.00 | 0.00 | 0.00 | 72 | 1008.3 |
| 20260830094542 | 80 | 330 | 1.0 | 5.0 | 0.00 | 0.00 | 0.00 | 72 | 1008.3 |
| 20260830094042 | 80 | 250 | 2.0 | 6.0 | 0.00 | 0.00 | 0.00 | 71 | 1008.3 |
| 20260830093541 | 80 | 221 | 0.0 | 6.0 | 0.00 | 0.00 | 0.00 | 71 | 1008.3 |
| 20260830093044 | 80 | 242 | 2.0 | 5.0 | 0.00 | 0.00 | 0.00 | 70 | 1008.4 |
| 20260830092542 | 81 | 288 | 1.0 | 5.0 | 0.00 | 0.00 | 0.00 | 70 | 1008.4 |
| 20260830092041 | 81 | 245 | 0.0 | 4.0 | 0.00 | 0.00 | 0.00 | 70 | 1008.3 |
| 20260830091546 | 81 | 228 | 0.0 | 6.0 | 0.00 | 0.00 | 0.00 | 69 | 1008.3 |
| 20260830091042 | 81 | 175 | 1.0 | 6.0 | 0.00 | 0.00 | 0.00 | 69 | 1008.3 |
| 20260830090541 | 81 | 205 | 2.0 | 6.0 | 0.00 | 0.00 | 0.00 | 69 | 1008.2 |
| 20260830090040 | 81 | 251 | 2.0 | 6.0 | 0.00 | 0.00 | 0.00 | 68 | 1008.1 |
| 20260830085539 | 81 | 223 | 2.0 | 5.0 | 0.00 | 0.00 | 0.00 | 68 | 1008.2 |
| 20260830085041 | 81 | 183 | 1.0 | 4.0 | 0.00 | 0.00 | 0.00 | 68 | 1008.2 |
| 20260830084539 | 81 | 262 | 1.0 | 6.0 | 0.00 | 0.00 | 0.00 | 67 | 1008.2 |
| 20260830084041 | 81 | 192 | 2.0 | 6.0 | 0.00 | 0.00 | 0.00 | 67 | 1008.3 |
| 20260830083537 | 81 | 188 | 0.0 | 6.0 | 0.00 | 0.00 | 0.00 | 67 | 1008.3 |
| 20260830083050 | 81 | 210 | 0.0 | 7.0 | 0.00 | 0.00 | 0.00 | 67 | 1008.3 |
| 20260830082541 | 81 | 214 | 2.0 | 7.0 | 0.00 | 0.00 | 0.00 | 66 | 1008.2 |
| 20260830082037 | 81 | 278 | 1.0 | 4.0 | 0.00 | 0.00 | 0.00 | 66 | 1008.2 |
| 20260830081536 | 81 | 195 | 1.0 | 5.0 | 0.00 | 0.00 | 0.00 | 66 | 1008.2 |
| 20260830081035 | 81 | 199 | 1.0 | 5.0 | 0.00 | 0.00 | 0.00 | 65 | 1008.3 |
| 20260830080534 | 81 | 204 | 1.0 | 6.0 | 0.00 | 0.00 | 0.00 | 65 | 1008.4 |
| 20260830080034 | 81 | 255 | 1.0 | 6.0 | 0.00 | 0.00 | 0.00 | 65 | 1008.4 |
| 20260830075533 | 81 | 223 | 0.0 | 3.0 | 0.00 | 0.00 | 0.00 | 64 | 1008.4 |
| 20260830075032 | 81 | 211 | 0.0 | 3.0 | 0.00 | 0.00 | 0.00 | 64 | 1008.5 |
| 20260830074534 | 80 | 172 | 0.0 | 4.0 | 0.00 | 0.00 | 0.00 | 64 | 1008.4 |
| 20260830074031 | 80 | 215 | 0.0 | 6.0 | 0.00 | 0.00 | 0.00 | 64 | 1008.4 |
| 20260830073530 | 80 | 229 | 0.0 | 4.0 | 0.00 | 0.00 | 0.00 | 64 | 1008.4 |
| 20260830073033 | 80 | 229 | 0.0 | 4.0 | 0.00 | 0.00 | 0.00 | 64 | 1008.4 |
| 20260830072533 | 80 | 240 | 0.0 | 3.0 | 0.00 | 0.00 | 0.00 | 65 | 1008.4 |
| 20260830072030 | 79 | 247 | 0.0 | 2.0 | 0.00 | 0.00 | 0.00 | 66 | 1008.4 |
| 20260830071531 | 79 | 230 | 0.0 | 2.0 | 0.00 | 0.00 | 0.00 | 66 | 1008.4 |
| 20260830071029 | 78 | 235 | 0.0 | 2.0 | 0.00 | 0.00 | 0.00 | 67 | 1008.4 |
| 20260830070531 | 78 | 238 | 0.0 | 0.0 | 0.00 | 0.00 | 0.00 | 67 | 1008.4 |
| 20260830070030 | 78 | 238 | 0.0 | 0.0 | 0.00 | 0.00 | 0.00 | 66 | 1008.3 |
| 20260830065528 | 78 | 238 | 0.0 | 1.0 | 0.00 | 0.00 | 0.00 | 67 | 1008.4 |
| 20260830065030 | 78 | 238 | 0.0 | 1.0 | 0.00 | 0.00 | 0.00 | 67 | 1008.4 |
| 20260830064534 | 78 | 238 | 0.0 | 1.0 | 0.00 | 0.00 | 0.00 | 68 | 1008.4 |
| 20260830064028 | 78 | 238 | 0.0 | 1.0 | 0.00 | 0.00 | 0.00 | 68 | 1008.4 |
| 20260830063530 | 77 | 238 | 0.0 | 1.0 | 0.00 | 0.00 | 0.00 | 68 | 1008.5 |
| 20260830063027 | 77 | 238 | 0.0 | 0.0 | 0.00 | 0.00 | 0.00 | 67 | 1008.5 |
| 20260830062525 | 78 | 238 | 0.0 | 0.0 | 0.00 | 0.00 | 0.00 | 66 | 1008.4 |
| 20260830062024 | 78 | 238 | 0.0 | 0.0 | 0.00 | 0.00 | 0.00 | 64 | 1008.6 |
| 20260830061528 | 78 | 238 | 0.0 | 0.0 | 0.00 | 0.00 | 0.00 | 64 | 1008.6 |
| 20260830061023 | 78 | 238 | 0.0 | 1.0 | 0.00 | 0.00 | 0.00 | 64 | 1008.7 |
| 20260830060524 | 78 | 238 | 0.0 | 1.0 | 0.00 | 0.00 | 0.00 | 64 | 1008.6 |
| 20260830060022 | 78 | 238 | 0.0 | 0.0 | 0.00 | 0.00 | 0.00 | 64 | 1008.6 |
| 20260830055522 | 78 | 238 | 0.0 | 0.0 | 0.00 | 0.00 | 0.00 | 63 | 1008.6 |
| 20260830055021 | 78 | 238 | 0.0 | 0.0 | 0.00 | 0.00 | 0.00 | 64 | 1008.6 |
| 20260830054524 | 78 | 238 | 0.0 | 0.0 | 0.00 | 0.00 | 0.00 | 63 | 1008.6 |
| 20260830054020 | 79 | 238 | 0.0 | 0.0 | 0.00 | 0.00 | 0.00 | 62 | 1008.6 |
| 20260830053519 | 79 | 238 | 0.0 | 0.0 | 0.00 | 0.00 | 0.00 | 61 | 1008.5 |
| 20260830053019 | 79 | 238 | 0.0 | 0.0 | 0.00 | 0.00 | 0.00 | 61 | 1008.6 |
| 20260830052518 | 79 | 238 | 0.0 | 0.0 | 0.00 | 0.00 | 0.00 | 62 | 1008.5 |
| 20260830052017 | 79 | 238 | 0.0 | 0.0 | 0.00 | 0.00 | 0.00 | 61 | 1008.5 |
| 20260830051516 | 79 | 238 | 0.0 | 0.0 | 0.00 | 0.00 | 0.00 | 60 | 1008.6 |
| 20260830051015 | 80 | 238 | 0.0 | 0.0 | 0.00 | 0.00 | 0.00 | 60 | 1008.5 |
| 20260830050515 | 80 | 238 | 0.0 | 1.0 | 0.00 | 0.00 | 0.00 | 59 | 1008.5 |
| 20260830050014 | 80 | 238 | 0.0 | 1.0 | 0.00 | 0.00 | 0.00 | 59 | 1008.5 |
| 20260830045515 | 80 | 238 | 0.0 | 0.0 | 0.00 | 0.00 | 0.00 | 57 | 1008.5 |
| 20260830045013 | 80 | 238 | 0.0 | 0.0 | 0.00 | 0.00 | 0.00 | 57 | 1008.6 |
| 20260830044513 | 81 | 238 | 0.0 | 0.0 | 0.00 | 0.00 | 0.00 | 57 | 1008.6 |
| 20260830044013 | 81 | 238 | 0.0 | 0.0 | 0.00 | 0.00 | 0.00 | 57 | 1008.7 |
| 20260830043515 | 81 | 238 | 0.0 | 0.0 | 0.00 | 0.00 | 0.00 | 56 | 1008.6 |
| 20260830043013 | 81 | 238 | 0.0 | 0.0 | 0.00 | 0.00 | 0.00 | 56 | 1008.6 |
| 20260830042515 | 82 | 238 | 0.0 | 0.0 | 0.00 | 0.00 | 0.00 | 55 | 1008.6 |
| 20260830042013 | 82 | 238 | 0.0 | 0.0 | 0.00 | 0.00 | 0.00 | 55 | 1008.5 |
| 20260830041511 | 82 | 238 | 0.0 | 0.0 | 0.00 | 0.00 | 0.00 | 54 | 1008.5 |
| 20260830041011 | 83 | 238 | 0.0 | 1.0 | 0.00 | 0.00 | 0.00 | 54 | 1008.4 |
| 20260830040511 | 83 | 238 | 0.0 | 1.0 | 0.00 | 0.00 | 0.00 | 54 | 1008.5 |
| 20260830040020 | 83 | 244 | 0.0 | 1.0 | 0.00 | 0.00 | 0.00 | 53 | 1008.4 |
| 20260830035512 | 84 | 244 | 0.0 | 1.0 | 0.00 | 0.00 | 0.00 | 53 | 1008.4 |
| 20260830035012 | 84 | 244 | 0.0 | 1.0 | 0.00 | 0.00 | 0.00 | 53 | 1008.3 |
| 20260830034511 | 84 | 244 | 0.0 | 2.0 | 0.00 | 0.00 | 0.00 | 52 | 1008.3 |
| 20260830034011 | 84 | 244 | 0.0 | 2.0 | 0.00 | 0.00 | 0.00 | 53 | 1008.4 |
| 20260830033510 | 84 | 240 | 1.0 | 2.0 | 0.00 | 0.00 | 0.00 | 53 | 1008.4 |
| 20260830033011 | 83 | 208 | 0.0 | 2.0 | 0.00 | 0.00 | 0.00 | 54 | 1008.2 |
| 20260830032510 | 83 | 207 | 0.0 | 2.0 | 0.00 | 0.00 | 0.00 | 55 | 1008.2 |
| 20260830032010 | 82 | 52 | 0.0 | 0.0 | 0.00 | 0.00 | 0.00 | 55 | 1008.2 |
| 20260830031510 | 83 | 52 | 0.0 | 1.0 | 0.00 | 0.00 | 0.00 | 55 | 1008.2 |
| 20260830031010 | 83 | 52 | 0.0 | 1.0 | 0.00 | 0.00 | 0.00 | 55 | 1008.2 |
| 20260830030512 | 82 | 52 | 0.0 | 1.0 | 0.00 | 0.00 | 0.00 | 56 | 1008.2 |
| 20260830030010 | 83 | 52 | 0.0 | 0.0 | 0.00 | 0.00 | 0.00 | 54 | 1008.1 |
| 20260830025510 | 83 | 52 | 0.0 | 0.0 | 0.00 | 0.00 | 0.00 | 54 | 1008.1 |
| 20260830025009 | 83 | 52 | 0.0 | 0.0 | 0.00 | 0.00 | 0.00 | 53 | 1008.0 |
| 20260830024517 | 83 | 52 | 0.0 | 0.0 | 0.00 | 0.00 | 0.00 | 53 | 1008.0 |
| 20260830024009 | 84 | 52 | 0.0 | 1.0 | 0.00 | 0.00 | 0.00 | 53 | 1008.0 |
| 20260830023509 | 84 | 52 | 0.0 | 1.0 | 0.00 | 0.00 | 0.00 | 52 | 1008.0 |
| 20260830023009 | 85 | 52 | 0.0 | 0.0 | 0.00 | 0.00 | 0.00 | 51 | 1007.9 |
| 20260830022509 | 85 | 52 | 0.0 | 0.0 | 0.00 | 0.00 | 0.00 | 51 | 1007.8 |